Location: *
(6.3500°N, 99.8000°E)
Time: 01:04:49
(UTC+00:00)

Daily predictions for brighter satellites

Satellite Brightness Start Highest point End
(mag) Time Altitude Azimuth Time Altitude Azimuth Time Altitude Azimuth
SL-8 R/B 4.2 11:25:37 10° NW 11:30:23 66° SW 11:35:11 10° SSE
CORIOLIS 4.4 11:28:03 10° S 11:33:29 79° WSW 11:38:55 10° NNW
Sich 1 Rocket 4.0 11:29:33 10° NNE 11:33:39 40° E 11:37:48 10° SSE
Cosmos 292 Rocket 3.8 11:30:11 10° N 11:34:58 66° ENE 11:39:44 10° SSE
Cosmos 2278 Rocket 3.0 11:30:05 10° NNW 11:35:36 59° WSW 11:41:08 10° S
YAOGAN 6 2.9 11:34:14 10° SSE 11:37:31 40° ENE 11:40:49 10° N
Cosmos 1666 4.0 11:34:23 10° NNW 11:37:55 44° W 11:41:30 10° SSW
Cosmos 1900 4.2 11:37:38 10° NNW 11:42:28 71° ENE 11:47:22 10° SSE
Cosmos 1674 Rocket 3.9 11:38:42 10° SSE 11:42:58 46° E 11:47:12 10° NNE
Cosmos 2084 Rocket 4.4 11:39:13 10° SW 11:43:22 47° WNW 11:47:34 10° N
Okean-O 2.8 11:41:30 10° S 11:45:56 80° WSW 11:50:20 10° NNW
Cosmos 2266 Rocket 4.1 11:41:01 10° S 11:47:20 65° E 11:53:40 10° NNE
ADEOS Rocket 3.6 11:45:16 10° NE 11:50:15 33° ESE 11:55:35 10° SSE
CZ-4C R/B 4.1 11:48:35 10° WSW 11:51:59 20° WNW 11:55:32 10° NNW
YAOGAN 1 3.2 11:48:12 10° SE 11:52:05 33° ENE 11:55:57 10° NNE
